Weather in Sotnur

Russia / Mari El Republic     56°08′28″N   48°46′31″E
temp.,
°C
wind,
m/s
gust,
m/s
humid.,
%
clouds,
%
prec.,
mm/h
press.,
hPa
HPBL,
m
27 february, sat
sat2700:00−13se71494100 5.8 1000661
03:00−12ese51194100 7.0 998460
06:00−12e5995100 0.6 997339
09:00−11ene4894100 1.7 998356
12:00−10ene5893100 0.7 998508
15:00−9ne5893100 1.5 1001630
18:00−12nne51092100 0.4 1003552
21:00−13n499398 0.4 1004392
28 february, sun
sun2800:00−16n499699 0.0 1006233
03:00−19n499576 0.0 1008209
06:00−20n39960 0.0 1009193
09:00−18n48931 0.0 1010274
12:00−14n468949 0.0 1011439
15:00−14n478971 0.0 1013527
18:00−19nnw339791 0.0 101471
21:00−21n229756 0.0 101720
1 march, mon
mon100:00−22n22970 0.0 101820
03:00−23n22970 0.0 102020
06:00−23nnw22980 0.0 102220
09:00−18nnw12920 0.0 1023148
12:00−12w118427 0.0 1022356
15:00−11w248757 0.0 1022480
18:00−16sw339790 0.0 102148
21:00−19sw339752 0.0 102077
2 march, tue
tue200:00−18ssw389846 0.0 1017163
03:00−15ssw499772 0.1 1013256
06:00−13ssw51195100 0.6 1008390
09:00−8ssw51194100 1.1 1004443
12:00−4ssw5995100 0.7 1002485
15:00−1s4897100 1.6 999461
18:000w3699100 1.1 998308
21:00−1w2699100 1.9 999331
3 march, wed
wed300:00−3n61193100 0.9 999534
03:00−7nnw4895100 0.9 1001264
06:00−9nnw399697 0.1 1002241
09:00−5nnw499396 0.1 1003418
12:00−3nnw589199 0.1 1005742
15:00−3nnw5989100 0.3 1006854
18:00−6nnw5118996 0.1 1008637
21:00−10nw389368 0.1 1010144